Location: Newark
(16.3678°N, 77.8722°E)
Time: 05:04:34
(UTC+00:00)

S-56A Canister/Altair - Pass Details

Date: 16 December 2019
Orbit: 634 x 2498 km, 38.9° (Epoch: 23 January)

Event Time Altitude Azimuth Distance (km) Brightness Sun altitude
Rises 04:46:26 0° 286° (WNW) 5,428 11.5 41.0°
Reaches altitude 10° 04:50:32 10° 297° (WNW) 4,667 11.2 41.6°
Maximum altitude 05:01:48 29° 353° (N) 3,731 10.9 43.1°
Drops below altitude 10° 05:14:11 10° 48° (NE) 5,116 11.7 44.7°
Sets 05:19:00 0° 59° (ENE) 6,013 12.1 45.2°
